COSMOS 1275 DEB, 13799

Orbit data source: Space-Track

COSMOS 1275 DEB, 13799 is space debris in LEO originally from a launch on Thu, 04 Jun 1981 UTC launched from the Plesetsk Missile And Space Complex (PKMTR). Debris objects in space refer to the collection of defunct objects orbiting the Earth. Examples of debris include non-operational satellites, rocket bodies, and fragments generated from explosions, collisions, or faulty payload assembly.

Loading next visibility...
Identifier
13799, 1981-053GT
Orbit
LEO
Country
Flag of CISCIS
Related business
Manufacturer
Unknown
Mission
Spacecraft
Bus & Motor
Unknown
Mass
Unknown
Launch date (UTC)
1981-06-04 (44 years ago)
Launch vehicle
Unknown
Launch site
Plesetsk Missile And Space Complex (PKMTR)
Object type
Payload
Rocket body
Debris
Shape & HBR
Unknown shape, 0.1 m
Radar Cross Section
Small (<0.1 m²)

Expand to show TLE details & history
Last TLE update: 8 hours ago

TLE from 8 hours ago
0 COSMOS 1275 DEB
1 13799U 81053GT  25298.40920851  .00001611  00000-0  15116-2 0  9996
2 13799  83.1352 161.5787 0089403  66.6206 111.2263 13.79194956151634
Epoch: 2025-10-25T09:49Z
TLE epoch observation values (Epoch: 2025-10-25T09:49:15.615Z)
Latitude
1.08502°
Longitude
160.0935°
Altitude
993.807 km
Speed
7.343 km/s
True Right ascension
22h 45m 47s
True Declination
1° 04' 43"
Sunlit
Object was in full shadow at epoch
Visualization orbit readout
Latitude
Unknown
Longitude
Unknown
Altitude
Unknown
Speed
Unknown
Apparent Right ascension
Unknown
Apparent Declination
Unknown
Sunlit
N/A
Visualization observer readout
Local Sidereal Time
13:04:35
Azimuth
Unknown
Elevation
Unknown
Doppler factor
Unknown
Orbital elements
Apogee altitude
1,029.519 km
Perigee altitude
898.239 km
Semi-major axis
7,342.016 km
Eccentricity
0.00894
Inclination
83.1352°
RAAN
161.5787°
Arg. of periapsis
66.6206°
True anomaly
112.17739°
Mean anomaly
111.2263°
Eccentric anomaly
111.70223°
Mean motion
3.45001 °/min
Orbital period
104.35 mins
BSTAR
0.0015116
Loading maneuver chart data...
Computing Atmospheric mass density...

Documentation

Showing up to 5 results
|